Location: Fernhill
(41.0167°S, 175.6333°E)
Time: 01:58:53
(UTC+00:00)

Cosmos 1862 - Pass Details

Date: 08 November 2025
Orbit: 473 x 485 km, 82.5° (Epoch: 12 December)

Event Time Altitude Azimuth Distance (km) Brightness Sun altitude
Exits shadow 08:27:14 22° 28° (NNE) 1,105 4.3 -14.0°
Maximum altitude 08:29:10 42° 87° (E) 715 3.5 -14.3°
Drops below altitude 10° 08:32:44 10° 158° (SSE) 1,713 6.0 -14.8°
Sets 08:34:56 0° 165° (SSE) 2,606 7.1 -15.1°
